EW8543 Weather Reports


Display with metric or nautical units.
time (UTC)temp
F
wind
direction
speed
MPH
gust
MPH
rain 1hr
in
rain 24hr
in
rain mn
in
humidity
%
barometer
mb
20260507142029 58 5 4.0 12.0 0.00 0.00 0.00 68 1016.7
20260507141538 58 277 5.0 12.0 0.00 0.00 0.00 66 1016.7
20260507141044 59 336 4.0 11.0 0.00 0.00 0.00 65 1016.7
20260507140533 58 28 3.0 11.0 0.00 0.00 0.00 66 1016.8
20260507140032 58 360 3.0 10.0 0.00 0.00 0.00 67 1016.9
20260507135541 58 350 6.0 15.0 0.00 0.00 0.00 65 1016.9
20260507135029 57 5 7.0 15.0 0.00 0.00 0.00 64 1016.9
20260507134536 57 5 6.0 11.0 0.00 0.00 0.00 66 1017.0
20260507134106 58 327 6.0 12.0 0.00 0.00 0.00 63 1016.9
20260507133553 59 324 7.0 11.0 0.00 0.00 0.00 61 1017.0
20260507133040 60 300 7.0 13.0 0.00 0.00 0.00 61 1016.9
20260507132527 59 12 4.0 14.0 0.00 0.00 0.00 64 1016.8
20260507132036 58 5 7.0 16.0 0.00 0.00 0.00 64 1016.9
20260507131542 58 22 9.0 16.0 0.00 0.00 0.00 65 1016.9
20260507131029 59 343 6.0 15.0 0.00 0.00 0.00 63 1016.8
20260507130558 59 342 6.0 13.0 0.00 0.00 0.00 63 1016.9
20260507130058 58 11 5.0 14.0 0.00 0.00 0.00 65 1016.9
20260507125541 58 355 7.0 14.0 0.00 0.00 0.00 65 1016.9
20260507125030 59 338 6.0 11.0 0.00 0.00 0.00 64 1016.8
20260507124539 57 265 5.0 16.0 0.00 0.00 0.00 64 1016.7
20260507124029 58 336 7.0 16.0 0.00 0.00 0.00 65 1016.8
20260507123538 58 355 8.0 13.0 0.00 0.00 0.00 65 1016.7
20260507123041 58 355 5.0 12.0 0.00 0.00 0.00 67 1016.7
20260507122529 57 355 6.0 13.0 0.00 0.00 0.00 69 1016.8
20260507122036 56 28 6.0 14.0 0.00 0.00 0.00 69 1016.8
20260507121526 57 351 9.0 14.0 0.00 0.00 0.00 68 1016.8
20260507121032 57 261 6.0 13.0 0.00 0.00 0.00 67 1016.8
20260507120537 57 324 7.0 15.0 0.00 0.00 0.00 67 1016.8
20260507120039 57 270 8.0 15.0 0.00 0.00 0.00 67 1016.7
20260507115528 58 327 7.0 14.0 0.00 0.00 0.00 67 1016.7
20260507115036 58 306 6.0 11.0 0.00 0.00 0.00 67 1016.7
20260507114559 57 11 6.0 11.0 0.00 0.00 0.00 64 1016.7
20260507114026 58 331 7.0 11.0 0.00 0.00 0.00 63 1016.7
20260507113536 58 9 7.0 11.0 0.00 0.00 0.00 63 1016.7
20260507113043 58 9 7.0 12.0 0.00 0.00 0.00 64 1016.7
20260507112533 58 309 6.0 12.0 0.00 0.00 0.00 63 1016.7
20260507112103 58 360 7.0 11.0 0.00 0.00 0.00 63 1016.8
20260507111531 58 336 5.0 11.0 0.00 0.00 0.00 62 1016.8
20260507111038 58 325 6.0 11.0 0.00 0.00 0.00 62 1016.7
20260507110526 58 5 7.0 11.0 0.00 0.00 0.00 62 1016.7
20260507110025 58 355 7.0 11.0 0.00 0.00 0.00 61 1016.7
20260507105529 58 5 5.0 8.0 0.00 0.00 0.00 61 1016.7
20260507105036 58 360 4.0 9.0 0.00 0.00 0.00 63 1016.8
20260507104525 58 328 5.0 9.0 0.00 0.00 0.00 61 1016.8
20260507104054 58 5 4.0 10.0 0.00 0.00 0.00 62 1016.8
20260507103538 57 13 5.0 10.0 0.00 0.00 0.00 63 1016.8
20260507103027 57 327 5.0 10.0 0.00 0.00 0.00 65 1016.8
20260507102535 57 313 5.0 10.0 0.00 0.00 0.00 64 1016.8
20260507102042 57 5 5.0 9.0 0.00 0.00 0.00 62 1016.8
20260507101530 57 11 4.0 10.0 0.00 0.00 0.00 64 1016.8
20260507101033 57 326 5.0 12.0 0.00 0.00 0.00 64 1016.8
20260507100543 57 318 7.0 12.0 0.00 0.00 0.00 65 1016.8
20260507100043 57 29 6.0 10.0 0.00 0.00 0.00 63 1016.7
20260507095533 57 342 4.0 11.0 0.00 0.00 0.00 64 1016.8
20260507095039 57 321 6.0 12.0 0.00 0.00 0.00 63 1016.7
20260507094544 57 351 6.0 12.0 0.00 0.00 0.00 63 1016.6
20260507094032 57 262 5.0 10.0 0.00 0.00 0.00 63 1016.6
20260507093601 57 298 5.0 13.0 0.00 0.00 0.00 64 1016.5
20260507093028 56 333 6.0 13.0 0.00 0.00 0.00 62 1016.5
20260507092534 57 319 6.0 11.0 0.00 0.00 0.00 63 1016.5
20260507092041 57 286 4.0 9.0 0.00 0.00 0.00 64 1016.5
20260507091529 57 348 4.0 9.0 0.00 0.00 0.00 64 1016.4
20260507091055 56 327 4.0 9.0 0.00 0.00 0.00 65 1016.3
20260507090559 56 323 6.0 9.0 0.00 0.00 0.00 64 1016.4
20260507090039 56 275 4.0 9.0 0.00 0.00 0.00 66 1016.4
20260507085529 56 326 4.0 10.0 0.00 0.00 0.00 65 1016.3
20260507085037 56 302 4.0 10.0 0.00 0.00 0.00 65 1016.3
20260507084525 56 351 4.0 7.0 0.00 0.00 0.00 64 1016.3
20260507084030 57 323 2.0 6.0 0.00 0.00 0.00 65 1016.3
20260507083604 57 325 3.0 8.0 0.00 0.00 0.00 64 1016.3
20260507083031 57 5 2.0 8.0 0.00 0.00 0.00 63 1016.3
20260507082600 56 18 1.0 5.0 0.00 0.00 0.00 61 1016.3
20260507082027 56 18 2.0 5.0 0.00 0.00 0.00 61 1016.3
20260507081531 57 15 2.0 5.0 0.00 0.00 0.00 63 1016.3
20260507081100 56 16 2.0 6.0 0.00 0.00 0.00 61 1016.3
20260507080528 56 75 2.0 6.0 0.00 0.00 0.00 62 1016.2
20260507080031 56 283 3.0 6.0 0.00 0.00 0.00 63 1016.2
20260507075532 56 38 1.0 6.0 0.00 0.00 0.00 64 1016.2
20260507075041 55 68 2.0 4.0 0.00 0.00 0.00 66 1016.1
20260507074531 55 50 2.0 6.0 0.00 0.00 0.00 65 1016.1
20260507074039 55 56 2.0 6.0 0.00 0.00 0.00 66 1016.1
20260507073548 55 36 3.0 6.0 0.00 0.00 0.00 69 1016.0
20260507073030 55 28 2.0 6.0 0.00 0.00 0.00 69 1016.1
20260507072538 54 12 2.0 6.0 0.00 0.00 0.00 69 1016.1
20260507072027 54 71 2.0 6.0 0.00 0.00 0.00 70 1016.1
20260507071535 54 51 1.0 4.0 0.00 0.00 0.00 72 1016.1
20260507071037 54 338 1.0 4.0 0.00 0.00 0.00 72 1016.0
20260507070525 53 9 1.0 5.0 0.00 0.00 0.00 73 1016.0
20260507070028 53 30 2.0 6.0 0.00 0.00 0.00 73 1016.0
20260507065537 52 9 2.0 8.0 0.00 0.00 0.00 73 1016.0
20260507065025 52 360 3.0 6.0 0.00 0.00 0.00 74 1016.0
20260507064531 52 17 2.0 6.0 0.00 0.00 0.00 76 1016.0
20260507064041 52 343 2.0 6.0 0.00 0.00 0.00 76 1015.9
20260507063528 52 355 1.0 4.0 0.00 0.00 0.00 77 1016.0
20260507063057 52 79 2.0 5.0 0.00 0.00 0.00 77 1016.0
20260507062524 51 30 2.0 5.0 0.00 0.00 0.00 78 1015.9
20260507062029 51 44 2.0 5.0 0.00 0.00 0.00 78 1015.9
20260507061537 51 59 2.0 5.0 0.00 0.00 0.00 78 1016.0
20260507061044 51 85 1.0 4.0 0.00 0.00 0.00 78 1015.9
20260507060532 50 101 1.0 4.0 0.00 0.00 0.00 79 1015.9
20260507060035 50 47 1.0 5.0 0.00 0.00 0.00 80 1016.0
20260507055540 50 59 2.0 5.0 0.00 0.00 0.00 80 1015.9
20260507055029 49 34 1.0 2.0 0.00 0.00 0.00 81 1015.9
20260507054538 49 34 0.0 3.0 0.00 0.00 0.00 82 1015.8
20260507054047 48 34 1.0 3.0 0.00 0.00 0.00 82 1015.7
20260507053530 48 34 0.0 2.0 0.00 0.00 0.00 82 1015.7
20260507053039 48 34 0.0 2.0 0.00 0.00 0.00 82 1015.6
20260507052528 48 34 0.0 3.0 0.00 0.00 0.00 83 1015.6
20260507052037 48 36 1.0 3.0 0.00 0.00 0.00 84 1015.6
20260507051526 48 24 0.0 2.0 0.00 0.00 0.00 84 1015.6
20260507051030 48 24 1.0 2.0 0.00 0.00 0.00 85 1015.5
20260507050539 47 24 0.0 2.0 0.00 0.00 0.00 87 1015.5
20260507050040 46 22 0.0 3.0 0.00 0.00 0.00 89 1015.4
20260507045528 45 22 0.0 2.0 0.00 0.00 0.00 88 1015.3
20260507045036 45 22 0.0 2.0 0.00 0.00 0.00 88 1015.3
20260507044541 45 22 0.0 1.0 0.00 0.00 0.00 88 1015.2
20260507044029 44 22 0.0 2.0 0.00 0.00 0.00 88 1015.2
20260507043538 44 22 1.0 2.0 0.00 0.00 0.00 88 1015.1
20260507043027 44 22 0.0 2.0 0.00 0.00 0.00 88 1015.1
20260507042556 44 22 0.0 1.0 0.00 0.00 0.00 88 1015.1
20260507042039 45 22 0.0 1.0 0.00 0.00 0.00 88 1015.1
20260507041528 45 22 0.0 1.0 0.00 0.00 0.00 88 1015.0
20260507041100 45 22 0.0 2.0 0.00 0.00 0.00 87 1015.0
20260507040528 45 22 0.0 2.0 0.00 0.00 0.00 87 1014.9
20260507040027 45 22 0.0 3.0 0.00 0.00 0.00 87 1014.9
20260507035536 45 22 0.0 3.0 0.00 0.00 0.00 88 1014.8
20260507035025 45 22 0.0 2.0 0.00 0.00 0.00 88 1014.9
20260507034534 45 22 1.0 3.0 0.00 0.00 0.00 87 1014.9
20260507034041 45 30 1.0 3.0 0.00 0.00 0.00 88 1014.8
20260507033526 45 26 1.0 3.0 0.00 0.00 0.00 87 1014.8
20260507033035 45 32 1.0 3.0 0.00 0.00 0.00 88 1014.8
20260507032524 45 32 1.0 3.0 0.00 0.00 0.00 87 1014.8
20260507032033 45 45 1.0 2.0 0.00 0.00 0.00 87 1014.8
20260507031542 45 45 1.0 2.0 0.00 0.00 0.00 87 1014.7
20260507031027 46 45 0.0 3.0 0.00 0.00 0.00 87 1014.7
20260507030536 46 45 1.0 3.0 0.00 0.00 0.00 87 1014.7
20260507030056 46 45 0.0 3.0 0.00 0.00 0.00 87 1014.6
20260507025543 46 45 1.0 3.0 0.00 0.00 0.00 87 1014.6
20260507025031 46 45 1.0 3.0 0.00 0.00 0.00 86 1014.6
20260507024536 46 45 1.0 3.0 0.00 0.00 0.00 86 1014.6
20260507024024 46 45 1.0 4.0 0.00 0.00 0.00 86 1014.5
20260507023533 46 45 1.0 4.0 0.00 0.00 0.00 86 1014.5
20260507023041 46 32 2.0 3.0 0.00 0.00 0.00 86 1014.5
20260507022530 46 32 1.0 3.0 0.00 0.00 0.00 86 1014.5
20260507022034 46 32 1.0 5.0 0.00 0.00 0.00 86 1014.5
20260507021543 46 342 2.0 5.0 0.00 0.00 0.00 85 1014.4
20260507021032 46 29 1.0 5.0 0.00 0.00 0.00 85 1014.3
20260507020542 46 38 2.0 5.0 0.00 0.00 0.00 86 1014.3
20260507020024 46 5 1.0 2.0 0.00 0.00 0.00 86 1014.3
20260507015550 47 5 1.0 4.0 0.00 0.00 0.00 85 1014.3
20260507015035 47 5 2.0 4.0 0.00 0.00 0.00 85 1014.3
20260507014524 47 19 1.0 4.0 0.00 0.00 0.00 85 1014.2
20260507014032 47 19 2.0 4.0 0.00 0.00 0.00 85 1014.2
20260507013557 47 25 1.0 4.0 0.00 0.00 0.00 85 1014.2
20260507013024 47 10 2.0 5.0 0.00 0.00 0.00 85 1014.1
20260507012533 47 327 1.0 5.0 0.00 0.00 0.00 85 1014.1
20260507012041 47 32 2.0 5.0 0.00 0.00 0.00 85 1014.1
20260507011529 47 9 2.0 5.0 0.00 0.00 0.00 85 1014.1
20260507011034 47 36 2.0 5.0 0.00 0.00 0.00 85 1014.1
20260507010542 47 340 2.0 5.0 0.00 0.00 0.00 85 1014.1
20260507010042 47 21 2.0 5.0 0.00 0.00 0.00 85 1014.1
20260507005530 47 5 3.0 5.0 0.00 0.00 0.00 85 1014.1
20260507005034 47 5 2.0 5.0 0.00 0.00 0.00 85 1014.1
20260507004524 48 61 2.0 6.0 0.00 0.00 0.00 85 1014.1
20260507004031 47 14 3.0 6.0 0.00 0.00 0.00 85 1014.0
20260507003539 48 336 1.0 5.0 0.00 0.00 0.00 85 1014.0
20260507003026 48 13 1.0 5.0 0.00 0.00 0.00 85 1014.1
20260507002528 48 13 2.0 5.0 0.00 0.00 0.00 85 1014.0
20260507002100 48 15 2.0 5.0 0.00 0.00 0.00 85 1014.0
20260507001547 48 350 1.0 6.0 0.00 0.00 0.00 85 1013.9
20260507001032 48 355 2.0 6.0 0.00 0.00 0.00 85 1013.9
20260507000537 48 25 2.0 6.0 0.00 0.00 0.00 85 1013.9
20260507000056 48 16 2.0 6.0 0.00 0.00 0.00 85 1013.9
20260506235542 48 14 2.0 5.0 0.00 0.00 0.00 85 1013.8
20260506235033 49 355 1.0 9.0 0.00 0.00 0.00 85 1013.9
20260506234540 49 360 3.0 9.0 0.00 0.00 0.00 84 1013.9
20260506234043 49 355 2.0 8.0 0.00 0.00 0.00 84 1013.9
20260506233531 49 30 2.0 8.0 0.00 0.00 0.00 83 1013.8
20260506233040 49 22 2.0 8.0 0.00 0.00 0.00 83 1013.8
20260506232527 49 23 3.0 8.0 0.00 0.00 0.00 83 1013.7
20260506232032 49 17 4.0 10.0 0.00 0.00 0.00 82 1013.7
20260506231555 49 41 3.0 10.0 0.00 0.00 0.00 82 1013.7
20260506231041 49 30 2.0 10.0 0.00 0.00 0.00 81 1013.7
20260506230527 50 34 4.0 10.0 0.00 0.00 0.00 81 1013.7
20260506230025 50 17 3.0 9.0 0.00 0.00 0.00 80 1013.7
20260506225528 50 30 2.0 8.0 0.00 0.00 0.00 79 1013.7
20260506225055 50 28 3.0 8.0 0.00 0.00 0.00 79 1013.6
20260506224523 50 11 3.0 8.0 0.00 0.00 0.00 79 1013.7
20260506224031 50 324 2.0 8.0 0.00 0.00 0.00 78 1013.7
20260506223536 50 9 2.0 10.0 0.00 0.00 0.00 78 1013.6
20260506223043 50 14 4.0 10.0 0.00 0.00 0.00 77 1013.5
20260506222532 50 15 3.0 6.0 0.00 0.00 0.00 77 1013.5
20260506222039 50 331 2.0 5.0 0.00 0.00 0.00 77 1013.4
20260506221525 50 351 2.0 5.0 0.00 0.00 0.00 76 1013.4
20260506221029 51 19 1.0 6.0 0.00 0.00 0.00 75 1013.4
20260506220536 51 11 2.0 6.0 0.00 0.00 0.00 75 1013.4
20260506220038 51 13 2.0 6.0 0.00 0.00 0.00 75 1013.4
20260506215524 51 5 2.0 8.0 0.00 0.00 0.00 74 1013.3
20260506215052 51 13 3.0 8.0 0.00 0.00 0.00 74 1013.3
20260506214556 51 11 2.0 6.0 0.00 0.00 0.00 74 1013.3
20260506214023 51 322 2.0 10.0 0.00 0.00 0.00 73 1013.3
20260506213531 51 341 4.0 10.0 0.00 0.00 0.00 73 1013.2
20260506213037 51 318 3.0 5.0 0.00 0.00 0.00 72 1013.2
20260506212541 52 347 2.0 6.0 0.00 0.00 0.00 72 1013.1
20260506212029 52 5 3.0 6.0 0.00 0.00 0.00 71 1013.1
20260506211538 52 355 2.0 6.0 0.00 0.00 0.00 71 1013.0
20260506211027 52 9 2.0 6.0 0.00 0.00 0.00 71 1012.9
20260506210541 52 5 1.0 7.0 0.00 0.00 0.00 70 1013.0
20260506210023 52 58 3.0 8.0 0.00 0.00 0.00 70 1012.9
20260506205532 53 325 2.0 6.0 0.00 0.00 0.00 70 1012.9
20260506205040 53 5 3.0 6.0 0.00 0.00 0.00 69 1012.9
20260506204529 53 40 2.0 6.0 0.00 0.00 0.00 68 1012.9
20260506204037 53 15 2.0 8.0 0.00 0.00 0.00 68 1012.9
20260506203542 54 40 3.0 8.0 0.00 0.00 0.00 67 1012.8
20260506203031 54 360 3.0 10.0 0.00 0.00 0.00 67 1012.8
20260506202540 54 15 3.0 10.0 0.00 0.00 0.00 67 1012.7
20260506202027 54 335 3.0 10.0 0.00 0.00 0.00 67 1012.6
20260506201536 54 341 3.0 9.0 0.00 0.00 0.00 67 1012.6
20260506201040 55 341 3.0 9.0 0.00 0.00 0.00 69 1012.6
20260506200529 55 34 2.0 6.0 0.00 0.00 0.00 70 1012.5
20260506200028 55 9 3.0 6.0 0.00 0.00 0.00 70 1012.5
20260506195536 55 17 2.0 8.0 0.00 0.00 0.00 70 1012.4
20260506195025 55 355 2.0 8.0 0.00 0.00 0.00 70 1012.3
20260506194549 55 344 3.0 8.0 0.00 0.00 0.00 72 1012.2
20260506194037 55 17 3.0 8.0 0.00 0.00 0.00 73 1012.2
20260506193527 55 32 2.0 8.0 0.00 0.00 0.00 73 1012.2
20260506193036 55 355 4.0 9.0 0.00 0.00 0.00 72 1012.2
20260506192525 55 350 4.0 9.0 0.00 0.00 0.00 73 1012.1
20260506192027 55 346 5.0 10.0 0.00 0.00 0.00 72 1012.0
20260506191536 55 346 5.0 10.0 0.00 0.00 0.00 72 1011.9
20260506191024 55 17 2.0 11.0 0.00 0.00 0.00 73 1011.9
20260506190533 55 298 4.0 11.0 0.00 0.00 0.00 73 1011.9
20260506190030 55 336 5.0 13.0 0.00 0.00 0.00 73 1011.8
20260506185540 55 355 4.0 13.0 0.00 0.00 0.00 73 1011.7
20260506185028 55 15 5.0 11.0 0.00 0.00 0.00 73 1011.6
20260506184558 55 19 4.0 11.0 0.00 0.00 0.00 73 1011.6
20260506184044 55 5 4.0 13.0 0.00 0.00 0.00 73 1011.5
20260506183548 55 25 5.0 13.0 0.00 0.00 0.00 74 1011.5
20260506183035 55 28 3.0 12.0 0.00 0.00 0.00 74 1011.4
20260506182524 55 23 4.0 14.0 0.00 0.00 0.00 74 1011.3
20260506182032 55 9 8.0 14.0 0.00 0.00 0.00 74 1011.2
20260506181538 55 355 7.0 12.0 0.00 0.00 0.00 74 1011.2
20260506181025 55 11 4.0 11.0 0.00 0.00 0.00 75 1011.1
20260506180535 55 351 6.0 12.0 0.00 0.00 0.00 75 1011.1
20260506180036 55 5 6.0 13.0 0.00 0.00 0.00 74 1011.1
20260506175525 55 13 5.0 13.0 0.00 0.00 0.00 74 1011.1
20260506175029 55 9 7.0 13.0 0.00 0.00 0.00 74 1011.0
20260506174538 55 9 7.0 15.0 0.00 0.00 0.00 74 1010.9
20260506174026 55 15 7.0 15.0 0.00 0.00 0.00 74 1010.8
20260506173535 55 344 7.0 14.0 0.00 0.00 0.00 75 1010.8
20260506173058 55 29 6.0 15.0 0.00 0.00 0.00 75 1010.8
20260506172527 55 16 6.0 17.0 0.00 0.00 0.00 75 1010.7
20260506172037 55 328 7.0 17.0 0.00 0.00 0.00 74 1010.7
20260506171525 55 317 5.0 14.0 0.00 0.00 0.00 75 1010.6
20260506171054 55 342 8.0 14.0 0.00 0.00 0.00 75 1010.6
20260506170538 55 333 9.0 13.0 0.00 0.00 0.00 75 1010.6
20260506170058 55 355 6.0 15.0 0.00 0.00 0.00 75 1010.5
20260506165545 55 9 8.0 15.0 0.00 0.00 0.00 75 1010.5
20260506165031 55 347 8.0 14.0 0.00 0.00 0.00 75 1010.5
20260506164534 55 5 6.0 15.0 0.00 0.00 0.00 75 1010.6
20260506164023 55 5 6.0 16.0 0.00 0.00 0.00 75 1010.5
20260506163552 55 360 9.0 16.0 0.00 0.00 0.00 75 1010.5
20260506163038 55 355 8.0 13.0 0.00 0.00 0.00 75 1010.5
20260506162527 55 24 7.0 15.0 0.00 0.00 0.00 75 1010.4
20260506162028 55 355 8.0 15.0 0.00 0.00 0.00 75 1010.5
20260506161537 55 331 7.0 14.0 0.00 0.00 0.00 75 1010.4
20260506161026 56 360 6.0 15.0 0.00 0.00 0.00 74 1010.4
20260506160536 56 338 6.0 15.0 0.00 0.00 0.00 73 1010.5
20260506160034 56 54 6.0 13.0 0.00 0.00 0.00 73 1010.4
20260506155542 56 346 7.0 17.0 0.00 0.00 0.00 73 1010.3
20260506155049 56 355 10.0 19.0 0.00 0.00 0.00 72 1010.4
20260506154537 56 22 5.0 19.0 0.00 0.00 0.00 72 1010.4
20260506154022 56 34 7.0 18.0 0.00 0.00 0.00 72 1010.4
20260506153546 56 29 9.0 20.0 0.00 0.00 0.00 72 1010.4
20260506153034 56 339 11.0 20.0 0.00 0.00 0.00 71 1010.4
20260506152522 57 12 12.0 20.0 0.00 0.00 0.00 70 1010.3
20260506152030 57 355 9.0 20.0 0.00 0.00 0.00 71 1010.3
20260506151534 57 5 10.0 21.0 0.00 0.00 0.00 71 1010.3
20260506151022 56 33 11.0 21.0 0.00 0.00 0.00 70 1010.3
20260506150532 57 360 7.0 22.0 0.00 0.00 0.00 70 1010.3
20260506150054 57 5 12.0 22.0 0.00 0.00 0.00 70 1010.2
20260506145540 58 11 12.0 20.0 0.00 0.00 0.00 68 1010.2
20260506145025 57 19 10.0 16.0 0.00 0.00 0.00 70 1010.1
20260506144534 57 303 8.0 18.0 0.00 0.00 0.00 70 1010.2
20260506144024 58 324 9.0 18.0 0.00 0.00 0.00 68 1010.2
20260506143559 58 329 9.0 19.0 0.00 0.00 0.00 68 1010.2
20260506143027 57 13 12.0 19.0 0.00 0.00 0.00 70 1010.2
20260506142532 58 12 8.0 17.0 0.00 0.00 0.00 69 1010.3